Weather History for Lexington, KY

Change the Weather History Date:

Tuesday, January 3, 2012

  Actual Average Record
Temperature  
Mean Temperature 21 °F 33 °F  
Max Temperature 28 °F 41 °F 68 °F (1907)
Min Temperature 14 °F 25 °F -2 °F (1928)
Degree Days  
Heating Degree Days 44 32  
Month to date heating degree days 103 96  
Since 1 July heating degree days 1700 1884  
Cooling Degree Days 0 0  
Month to date cooling degree days 0 0  
Year to date cooling degree days 0 0  
Moisture  
Dew Point 9 °F    
Average Humidity 60    
Maximum Humidity 80    
Minimum Humidity 39    
Precipitation  
Precipitation T in 0.11 in 2.60 in (1951)
Month to date precipitation T 0.32  
Year to date precipitation T 0.32  
Snow  
Snow T in 0.10 in 7.00 in (1942)
Month to date snowfall T 0.3  
Since 1 July snowfall T 3.1  
Snow Depth T in    
Sea Level Pressure  
Sea Level Pressure 30.38 in    
Wind  
Wind Speed 9 mph (West)    
Max Wind Speed 16 mph    
Max Gust Speed 23 mph    
Visibility 10 miles    
Events Snow    
T = Trace of Precipitation, MM = Missing Value Source: NWS Daily Summary

Daily Weather History Graph

Daily Weather History Graph

Search for Another Location

Airport:

Trip Planner

Search our weather history database for the weather conditions in past years. The results will help you decide how hot, cold, wet, or windy it might be!

Date:

Astronomy

Jan. 03, 2012 Rise Set
Actual Time 7:54 AM EST 5:30 PM EST
Civil Twilight 7:25 AM EST 6:00 PM EST
Nautical Twilight 6:52 AM EST 6:33 PM EST
Astronomical Twilight 6:20 AM EST 7:05 PM EST
Moon 1:16 PM EST (1/3) 2:46 AM EST (1/3)
Length of Visible Light 10h 34m
Length of Day
9h 36m
Waxing Gibbous, 72% of the Moon is Illuminated
Jan 3
Waxing Gibbous
Jan 9
Full
Jan 16
Last Quarter
Jan 23
New
Jan 30
First Quarter

Hourly Weather History & Observations

Time (EST) Temp. Windchill Dew Point Humidity Pressure Visibility Wind Dir Wind Speed Gust Speed Precip Events Conditions
12:54 AM 19.9 °F 7.9 °F 10.9 °F 68% 30.33 in 10.0 mi WNW 11.5 mph 20.7 mph N/A   Overcast
1:54 AM 19.0 °F 6.1 °F 12.0 °F 74% 30.34 in 9.0 mi WNW 12.7 mph 18.4 mph 0.00 in Snow Light Snow
2:54 AM 19.0 °F 7.5 °F 10.9 °F 71% 30.36 in 10.0 mi NW 10.4 mph 18.4 mph 0.00 in   Overcast
3:54 AM 19.0 °F 8.2 °F 9.0 °F 65% 30.37 in 10.0 mi WNW 9.2 mph 19.6 mph N/A   Overcast
4:54 AM 18.0 °F 5.4 °F 9.0 °F 68% 30.38 in 10.0 mi WNW 11.5 mph - N/A   Mostly Cloudy
5:04 AM 17.6 °F 5.0 °F 10.4 °F 73% 30.34 in 10.0 mi WNW 11.5 mph - N/A   Mostly Cloudy
5:54 AM 17.6 °F 5.7 °F 8.6 °F 68% 30.35 in 10.0 mi WNW 10.4 mph - N/A   Partly Cloudy
6:33 AM 15.8 °F 6.1 °F 8.6 °F 73% 30.36 in 10.0 mi West 6.9 mph - N/A   Mostly Cloudy
6:42 AM 15.8 °F 5.1 °F 8.6 °F 73% 30.37 in 10.0 mi West 8.1 mph - N/A   Scattered Clouds
6:54 AM 16.0 °F 5.3 °F 9.0 °F 74% 30.41 in 10.0 mi West 8.1 mph - N/A   Partly Cloudy
7:54 AM 14.0 °F 5.1 °F 9.0 °F 80% 30.42 in 10.0 mi West 5.8 mph - N/A   Clear
8:54 AM 17.1 °F 6.6 °F 10.0 °F 74% 30.44 in 10.0 mi West 8.1 mph - N/A   Clear
9:54 AM 19.0 °F 9.0 °F 10.0 °F 68% 30.46 in 10.0 mi West 8.1 mph - N/A   Clear
10:54 AM 21.9 °F 12.5 °F 12.0 °F 66% 30.47 in 10.0 mi West 8.1 mph - N/A   Clear
11:54 AM 24.1 °F 13.7 °F 12.0 °F 60% 30.45 in 10.0 mi West 10.4 mph 17.3 mph N/A   Partly Cloudy
12:24 PM 24.8 °F 14.6 °F 10.4 °F 54% 30.39 in 10.0 mi NW 10.4 mph - N/A   Mostly Cloudy
12:31 PM 24.8 °F 13.4 °F 10.4 °F 54% 30.39 in 10.0 mi NW 12.7 mph - N/A   Mostly Cloudy
12:54 PM 25.0 °F 13.6 °F 10.9 °F 55% 30.42 in 10.0 mi West 12.7 mph - N/A   Overcast
1:54 PM 26.1 °F 16.2 °F 10.0 °F 51% 30.40 in 10.0 mi WNW 10.4 mph 18.4 mph N/A   Partly Cloudy
2:54 PM 28.0 °F 18.6 °F 9.0 °F 45% 30.38 in 10.0 mi West 10.4 mph 16.1 mph N/A   Clear
3:54 PM 28.0 °F 17.5 °F 7.0 °F 41% 30.38 in 10.0 mi WNW 12.7 mph - N/A   Clear
4:54 PM 27.0 °F 18.0 °F 6.1 °F 41% 30.39 in 10.0 mi WSW 9.2 mph - N/A   Clear
5:54 PM 24.1 °F 17.0 °F 5.0 °F 44% 30.39 in 10.0 mi West 5.8 mph - N/A   Clear
6:54 PM 21.2 °F - 6.8 °F 54% 30.35 in 10.0 mi Calm Calm - N/A   Clear
7:54 PM 21.9 °F 17.2 °F 7.0 °F 53% 30.39 in 10.0 mi SSW 3.5 mph - N/A   Clear
8:54 PM 21.2 °F 14.9 °F 8.6 °F 58% 30.33 in 10.0 mi South 4.6 mph - N/A   Clear
9:54 PM 19.0 °F 11.1 °F 8.1 °F 62% 30.35 in 10.0 mi SSE 5.8 mph - N/A   Clear
10:54 PM 19.0 °F 9.0 °F 9.0 °F 65% 30.33 in 10.0 mi South 8.1 mph - N/A   Clear
11:54 PM 19.0 °F 10.0 °F 10.0 °F 68% 30.31 in 10.0 mi SSE 6.9 mph - N/A   Clear